Theta_e
310 309 309 308 306 308 309 311 313 316 316 317 316 316 315 315 312 312 310 311 312 317 321 348 345 343 342 342 341 341 341 341 342 342 340 340 343 342 343 343 344 344 343 338
309 312 310 309 309 307 308 309 311 311 312 314 317 317 316 315 313 311 310 310 311 311 333 348 345 344 343 342 342 343 342 341 342 344 343 346 346 347 346 345 345 346 344 343
316 313 310 310 310 310 309 308 309 312 313 314 317 317 316 316 316 312 311 311 311 311 320 349 347 345 343 342 342 342 344 345 345 348 349 351 352 351 351 352 351 349 347 348
317 315 315 312 311 309 310 309 310 313 315 318 317 318 316 317 315 314 313 310 311 310 314 346 347 345 343 342 342 342 343 342 347 350 351 352 350 347 345 347 347 348 347 344
316 314 314 314 313 310 312 309 311 314 317 316 317 318 319 316 316 316 314 310 311 310 312 345 345 344 344 343 343 343 342 340 346 346 343 349 346 341 342 343 343 344 343 340
316 315 314 313 311 309 311 309 310 312 317 323 318 319 319 316 317 317 315 310 311 310 313 342 344 344 344 342 342 343 344 346 345 344 345 346 345 342 339 339 340 338 338 337
315 316 315 313 313 312 310 308 314 316 323 324 321 320 318 317 317 317 313 311 310 310 330 347 345 345 340 339 341 343 343 344 343 343 340 336 338 340 335 337 340 334 330 323
317 317 317 316 314 313 313 311 313 314 326 323 323 323 322 316 316 315 313 312 311 309 339 348 347 345 343 340 340 341 342 343 344 340 341 339 340 337 336 337 335 335 327 320
319 318 316 315 314 313 314 314 315 322 324 323 326 323 321 318 315 314 313 312 310 315 345 347 346 343 338 340 340 339 340 340 341 342 340 341 340 337 336 332 332 324 320 318
315 320 316 315 313 313 312 312 315 320 325 329 326 325 322 318 315 314 312 311 324 341 347 345 340 336 335 332 332 334 334 332 330 330 333 337 336 336 329 325 320 319 317 316
314 314 313 312 314 313 315 316 317 319 325 326 327 324 336 335 327 313 321 331 345 347 345 341 336 334 331 329 326 325 326 326 326 324 324 325 324 325 321 318 316 316 315 316
315 319 318 314 315 313 316 317 318 323 327 326 322 324 332 330 327 334 340 343 343 343 340 336 332 329 327 325 324 322 321 321 320 320 318 318 318 317 316 315 316 316 316 316
315 320 312 315 314 314 317 317 318 318 322 330 326 331 338 334 336 338 342 342 341 338 333 329 327 326 324 322 321 319 318 317 317 317 316 315 315 315 315 316 316 316 315 314
318 318 318 312 315 315 319 319 318 322 326 328 336 342 340 338 340 340 340 338 335 332 329 326 324 323 321 320 318 317 316 316 315 315 315 315 315 315 316 316 315 315 314 313
318 319 316 318 319 320 320 320 320 324 326 331 339 336 339 339 339 339 336 332 330 328 326 324 322 319 318 317 316 315 314 314 314 314 314 315 315 315 315 315 315 314 311 310
315 318 318 320 321 320 319 323 324 326 326 324 333 338 334 334 332 332 331 329 326 324 323 321 320 318 317 315 313 313 313 312 313 314 314 315 314 314 313 312 313 311 310 310
315 319 319 314 321 319 322 323 323 325 325 327 336 335 328 327 325 324 323 321 320 319 318 316 315 315 313 311 310 310 311 312 313 313 313 313 313 312 312 312 311 311 311 309
319 317 318 317 319 321 323 317 321 326 329 331 329 324 320 319 318 317 317 317 316 315 314 313 311 309 308 308 309 310 311 312 312 311 311 311 311 311 312 312 312 311 310 308
311 321 321 317 323 324 323 316 317 322 332 325 320 319 317 316 315 315 314 313 313 311 310 308 307 307 307 307 308 309 309 308 308 308 309 309 309 309 310 311 311 311 308 307
309 312 317 317 319 319 319 310 309 313 332 322 318 318 318 321 317 314 311 310 309 308 307 306 305 305 306 306 308 307 306 306 306 307 308 308 308 308 308 309 311 310 308 306
307 304 312 319 318 319 309 306 308 326 328 321 318 320 320 318 313 309 307 307 305 304 304 303 303 302 304 306 307 305 304 304 305 307 307 307 307 307 307 307 310 308 307 305
305 305 307 311 319 319 305 308 323 316 321 317 314 312 311 309 308 307 306 304 303 301 301 300 299 299 302 304 305 302 302 303 305 306 306 305 306 306 305 306 307 305 303 302
305 303 305 306 307 303 302 303 304 306 313 311 310 310 309 309 307 305 303 302 301 300 299 298 298 298 300 301 302 300 300 302 303 304 303 302 302 302 302 303 302 301 300 298
300 300 303 307 304 300 305 307 310 310 309 308 308 307 306 305 304 303 302 301 299 299 298 297 297 296 297 299 299 299 300 301 301 300 300 300 300 299 299 298 298 297 296 296
299 299 300 303 300 302 302 305 306 307 306 306 305 305 305 304 303 302 301 299 299 298 297 296 295 295 296 297 297 297 298 299 299 299 299 298 297 297 297 297 296 295 294 294
300 299 300 300 298 299 299 303 304 304 303 303 303 302 302 302 301 301 299 299 298 297 296 295 294 294 294 295 295 295 295 297 297 297 297 297 297 297 297 297 297 296 295 293
Wind_Speed
4 4 10 14 9 11 9 14 15 4 8 7 24 17 15 11 7 9 9 8 9 12 9 22 26 30 29 30 37 43 40 38 36 33 29 27 26 27 26 26 25 25 25 24
1 15 15 8 10 11 13 15 15 13 15 13 16 17 13 9 8 9 10 8 10 7 10 13 23 27 30 37 34 35 38 41 37 33 31 23 27 28 30 29 25 25 25 21
12 11 5 15 14 15 16 19 14 13 11 15 13 12 8 9 14 8 7 9 8 14 14 15 16 25 26 30 37 42 41 40 38 32 28 20 22 18 18 15 13 18 19 14
13 15 20 19 15 15 17 15 15 14 9 7 2 4 10 17 10 14 10 10 10 10 10 14 16 17 25 33 38 36 38 41 37 34 25 22 18 9 8 10 11 13 13 12
8 5 13 16 20 16 13 14 11 9 8 11 17 4 11 11 13 16 14 10 11 11 14 18 17 26 31 30 42 42 39 38 33 33 27 20 15 16 15 12 10 11 10 5
20 16 6 9 14 16 9 11 5 1 3 5 13 7 8 9 20 20 12 10 13 9 11 16 20 23 22 25 24 26 32 27 24 26 19 16 16 15 7 10 20 18 13 10
10 19 16 19 3 8 14 10 4 5 6 5 6 7 12 16 16 18 11 12 10 10 12 15 17 14 17 22 22 23 19 13 12 12 9 12 17 16 9 8 10 11 15 15
4 5 11 11 15 6 9 11 5 7 7 5 7 7 7 11 9 10 11 11 9 10 12 17 17 15 21 20 18 14 14 9 8 11 7 8 11 11 13 8 15 10 11 14
4 5 5 18 12 10 6 10 4 4 7 4 5 5 9 4 7 8 11 10 10 11 15 18 17 15 15 21 22 22 20 15 11 12 16 26 16 14 17 19 21 24 19 16
4 6 7 7 14 12 9 8 4 2 5 7 5 4 5 6 9 11 9 11 9 13 17 18 14 21 24 25 27 28 25 21 18 22 26 33 32 33 28 29 29 26 22 19
6 3 4 9 5 7 9 5 3 2 3 3 6 5 3 5 4 11 9 14 18 19 20 18 16 23 27 29 30 32 32 30 26 27 32 34 33 37 36 30 27 25 22 20
3 3 3 4 7 12 6 8 6 3 3 4 3 3 4 6 6 15 16 17 17 21 19 19 20 27 26 27 27 30 32 36 33 34 37 40 37 33 31 26 24 21 22 20
3 2 2 5 6 5 5 11 2 1 8 2 1 2 6 9 14 18 22 19 19 20 20 19 19 17 25 26 27 26 28 32 34 35 36 34 33 33 30 27 24 22 22 21
9 2 3 5 4 4 4 9 8 6 2 6 3 8 8 11 17 17 22 22 18 20 21 20 20 18 25 27 26 25 25 33 34 35 32 30 29 30 29 27 24 23 20 17
4 3 5 7 8 4 4 15 10 4 3 3 4 9 4 12 16 18 19 22 21 21 22 20 20 18 24 27 25 26 26 33 35 34 31 30 28 28 26 24 21 19 17 16
4 3 2 3 5 4 14 12 11 6 6 7 4 9 7 17 19 18 18 23 22 22 22 21 20 19 22 26 24 24 27 29 32 33 32 30 27 25 23 20 18 17 16 15
2 3 2 4 8 12 5 4 1 2 2 9 3 7 16 20 18 14 15 19 24 23 22 21 19 18 24 24 24 26 32 30 30 32 31 28 25 22 20 18 16 15 14 14
0 0 1 2 3 4 3 4 7 3 8 13 17 16 21 21 18 16 12 20 24 23 21 18 18 24 25 28 31 33 32 31 30 30 28 24 22 20 18 16 15 14 13 12
7 2 2 4 2 3 5 8 8 8 6 14 22 18 22 23 24 17 13 15 21 21 18 23 25 26 27 30 32 34 31 28 27 25 23 20 18 18 16 15 12 12 11 11
11 9 2 2 4 2 2 8 12 8 4 16 20 21 21 17 14 5 9 16 20 27 27 26 26 29 31 28 32 32 27 26 23 21 20 19 16 15 13 11 10 11 11 13
7 5 6 4 3 3 6 16 7 4 1 12 15 16 14 10 10 13 11 15 23 27 27 28 29 27 28 30 31 28 26 24 21 19 19 17 14 12 11 8 10 10 12 11
4 5 4 4 3 2 14 13 2 3 7 14 10 15 22 22 19 15 14 14 17 22 25 26 29 26 28 29 31 27 24 19 19 19 18 16 13 12 10 8 13 13 12 10
2 3 3 3 2 8 16 17 16 10 11 14 21 18 23 21 19 17 13 12 15 23 23 23 27 29 28 26 26 26 18 17 17 17 16 14 13 12 12 14 16 14 10 9
6 3 2 3 5 14 16 15 14 13 17 15 16 20 18 24 18 19 14 11 14 21 22 23 26 27 25 24 23 21 17 15 16 17 15 13 14 15 16 16 15 14 13 12
2 7 5 2 6 9 16 13 10 17 17 21 17 17 17 20 18 14 13 11 16 21 20 22 23 24 24 21 19 16 14 13 16 16 14 14 14 14 15 15 13 14 15 13
4 3 3 3 7 3 6 6 11 19 17 17 20 19 15 18 17 16 12 15 17 22 22 24 26 27 21 19 16 14 12 13 16 17 13 11 11 11 12 12 11 10 10 8
Wind_Direction
216 173 219 217 208 232 265 261 268 278 271 253 241 248 242 266 251 227 201 209 158 175 155 162 156 164 165 168 171 183 185 189 188 193 196 202 205 207 211 216 217 213 211 207
197 229 240 235 228 238 239 250 257 268 270 277 281 259 234 213 238 217 195 192 176 146 136 152 155 157 164 171 179 181 188 188 193 192 197 197 205 215 221 221 229 230 223 208
242 242 225 231 240 236 235 236 236 256 272 279 279 271 215 210 220 232 194 169 194 170 149 151 161 167 164 171 181 187 189 190 194 194 181 178 186 196 204 205 207 221 206 199
264 279 233 236 243 225 234 233 223 245 241 243 228 276 208 208 212 228 201 167 186 200 131 152 162 166 174 182 187 191 188 190 196 186 171 167 176 115 83 128 162 175 149 92
247 238 207 229 226 215 238 224 202 246 244 322 274 236 231 174 210 219 217 174 194 185 143 159 170 176 185 182 192 197 196 203 194 191 187 179 144 112 82 96 117 114 111 180
255 253 239 250 231 213 209 179 153 197 86 241 238 200 220 183 199 210 196 168 187 180 134 169 169 166 175 185 190 193 197 199 195 194 190 181 173 163 106 87 98 101 101 164
279 248 220 217 268 194 191 153 157 210 202 241 213 216 255 211 204 203 167 175 176 159 143 148 156 162 170 169 180 191 196 187 190 186 210 227 213 187 126 141 172 134 145 146
289 307 191 187 217 176 185 164 189 173 188 211 154 205 251 210 187 175 150 168 157 149 152 155 162 161 175 157 154 156 177 165 184 201 195 159 202 157 126 209 185 184 145 129
286 263 153 177 184 192 182 178 135 79 266 155 146 259 297 153 158 159 156 153 166 147 150 150 157 148 136 126 126 131 129 125 146 156 143 135 122 153 178 180 158 149 144 135
272 278 289 184 171 197 174 137 105 109 218 161 205 193 186 162 188 174 138 147 137 132 136 143 130 122 106 108 109 116 121 122 122 124 133 143 156 169 147 140 142 142 137 127
245 236 16 129 211 160 155 133 103 8 258 215 155 234 97 271 289 138 146 138 135 134 139 132 119 112 111 105 105 107 114 118 116 112 114 121 125 133 132 135 136 128 119 116
262 307 289 183 303 153 177 157 144 176 205 243 142 243 335 254 217 135 131 131 128 125 130 124 118 113 108 106 107 107 110 111 111 114 115 118 121 124 124 123 114 110 105 100
305 273 3 349 355 1 166 163 120 3 296 9 118 268 357 79 122 131 122 123 122 123 118 112 106 106 108 107 103 104 107 107 112 115 114 113 117 116 112 112 109 106 104 98
227 253 245 199 214 152 149 156 167 190 281 311 350 104 95 119 121 124 121 120 119 121 115 110 107 107 104 103 106 104 105 112 112 110 108 104 102 106 107 107 105 100 97 92
185 249 211 253 240 196 148 143 193 251 227 286 56 102 66 125 121 123 118 117 117 113 109 111 108 104 102 101 100 103 107 112 115 110 106 105 106 106 105 104 101 101 100 94
315 272 19 295 267 199 137 119 80 246 139 300 241 71 75 94 97 106 123 121 113 113 111 107 107 107 106 104 107 112 111 110 115 110 110 112 110 104 100 101 106 105 99 87
249 311 5 7 95 103 92 6 170 243 155 225 113 112 90 91 85 95 112 113 113 111 108 106 104 104 102 108 115 109 112 116 112 113 117 115 112 109 109 110 108 101 92 83
33 251 41 81 26 45 52 35 289 106 21 109 90 89 91 90 84 83 92 112 106 103 102 98 97 96 100 105 106 112 116 114 113 113 115 116 113 109 106 108 113 102 93 84
351 264 58 97 75 124 26 19 12 8 47 87 101 105 104 102 90 62 73 86 98 98 95 96 101 104 103 105 110 111 108 110 110 109 106 104 105 102 103 101 116 123 114 101
7 12 126 87 77 131 19 2 356 329 125 138 124 131 131 125 96 97 90 99 96 96 100 101 98 97 101 106 113 107 102 104 100 99 97 96 98 99 101 108 130 133 122 109
342 357 30 34 119 129 24 332 298 109 183 143 145 137 116 97 106 112 102 94 94 98 100 100 94 91 101 110 113 99 99 93 98 103 107 103 98 99 103 120 126 129 130 118
17 333 9 334 45 65 354 334 295 62 120 124 111 113 109 110 102 97 94 94 94 95 92 92 91 85 101 107 108 97 95 101 101 100 101 98 102 108 111 126 130 133 125 112
24 9 333 13 307 297 291 239 262 268 125 112 113 118 116 112 116 106 87 90 91 93 93 94 95 89 94 102 107 102 105 106 105 103 99 96 100 101 105 111 116 109 102 87
345 358 7 280 343 334 5 26 61 94 98 101 103 112 111 112 105 104 109 105 101 97 95 96 91 86 86 97 101 103 106 109 107 101 97 103 102 101 99 100 97 90 74 64
305 323 319 10 337 337 16 13 61 86 88 92 85 93 107 110 105 106 104 99 104 100 101 99 96 96 97 100 97 97 99 106 108 104 101 99 102 100 96 91 86 81 72 64
349 348 3 36 327 317 331 2 61 80 83 88 99 94 85 96 100 100 95 100 104 101 100 93 93 94 96 94 92 92 95 109 112 103 100 101 107 104 96 92 85 76 69 60